weather.gov     
National Weather Service

Regional Weather Roundup
NWS Homepage
This page is being discontinued on March 12, 2014.
The same data is available at this site. Please update your bookmarks.
Thank you, and we apologize for the inconvenience.
Please send an email to SR-SRH.Webmaster@noaa.gov with any concerns.


Current Version
Previous Version:    01  02  03  04  05  06  07  08  09  10  11  12  13  14  15  16  17  18  19  20  21  22  23  24  25  26  27  28  29  30  
   31  32  33  34  35  36  37  38  39  40  41  42  43  44  45  46  47  48  49  50  51  52  53  54  55  56  57  58  59  60  
[Printable]
885
NZUS01 KOTX 231310
RWROTX
EASTERN WASHINGTON/NORTHERN IDAHO ROUNDUP
NATIONAL WEATHER SERVICE, SPOKANE WA
600 AM PDT WED APR 23 2014

Note: "fair" indicated few or no clouds below 12,000 feet with no
significant weather and/or obstructions to visibility.

...NORTHEAST WASHINGTON AND NORTHERN IDAHO PANHANDLE...

CITY           SKY/WX    TMP DP  RH WIND       PRES   REMARKS
SPOKANE INTL   CLOUDY    33  31  92 S7        29.83S WCI  27
SPOKANE DOWNTO CLOUDY    39  32  76 CALM      29.86S
COEUR D ALENE  CLOUDY    36  32  87 W5        29.86S
DEER PARK      CLOUDY    34  30  85 S9        29.84S WCI  27
SANDPOINT      CLOUDY    36  32  87 S7        29.84R

...SOUTHEAST WASHINGTON AND SOUTHERN IDAHO PANHANDLE...

CITY           SKY/WX    TMP DP  RH WIND       PRES   REMARKS
WALLA WALLA    CLOUDY    48  34  58 S12       29.92R
PULLMAN/MOSCOW LGT RAIN  38  32  79 W10       29.89S
LEWISTON       CLOUDY    42  29  59 CALM      29.89S

...COLUMBIA BASIN...

CITY           SKY/WX    TMP DP  RH WIND       PRES   REMARKS
EPHRATA        CLOUDY    41  35  79 CALM      29.82S
MOSES LAKE     CLOUDY    45  34  65 S8        29.83S
TRI CITIES     CLOUDY    48  36  63 SW10      29.90F
HERMISTON      CLOUDY    42  37  82 CALM      29.92R
PENDLETON      CLOUDY    46  31  55 SW10      29.90S

...EAST SLOPES CASCADES...

CITY           SKY/WX    TMP DP  RH WIND       PRES   REMARKS
THE DALLES     CLOUDY    44  40  85 CALM      29.95R
YAKIMA         PTCLDY    35  30  82 W9        29.88R WCI  28
ELLENSBURG     LGT RAIN  36  32  85 E6        29.85R
WENATCHEE      MOCLDY    40  30  67 SW5       29.83S
OMAK           CLOUDY    35  28  75 N3        29.82R

...SOUTHERN BRITISH COLUMBIA...

CITY           SKY/WX    TMP DP  RH WIND       PRES   REMARKS
PENTICTON      MOCLDY    36  28  75 N5        29.81S
CASTLEGAR      MOCLDY    34  32  93 SE6       29.81  WCI  29
CRANBROOK      PTCLDY    34  21  60 SE9       29.69R WCI  26

...WESTERN MONTANA...

CITY           SKY/WX    TMP DP  RH WIND       PRES   REMARKS
MISSOULA       CLOUDY    36  27  69 W6        29.83R

...NEIGHBORING CITIES...

CITY           SKY/WX    TMP DP  RH WIND       PRES   REMARKS
SEATTLE        LGT RAIN  44  39  82 S12G26    29.90R
CALGARY        MOCLDY    41  36  81 N12       29.42F




U.S. Dept. of Commerce
NOAA National Weather Service
1325 East West Highway
Silver Spring, MD 20910
E-mail: w-nws.webmaster@noaa.gov
Page last modified: May 16, 2007
NATIONAL WEATHER SERVICE: for Safety, for Work, for Fun - FOR LIFE